Regional Weather Roundup
Issued by NWS

Home | Current Version | Previous Version | Graphics & Text | Print | Product List | Glossary On
Versions: 1 2 3 4 5 6 7 8 9 10 11 12 13 14 15 16 17 18 19 20 21 22 23 24 25 26 27 28 29 30 31 32 33 34 35 36 37 38 39 40 41 42 43 44 45 46 47 48 49 50
000
ASUS45 KPSR 051300
RWRAZ

ARIZONA REGIONAL HOURLY WEATHER ROUNDUP
NATIONAL WEATHER SERVICE PHOENIX AZ
600 AM MST THU MAR 05 2015

NOTE: FAIR INDICATES FEW OR NO CLOUDS BELOW 12,000 FEET WITH NO
SIGNIFICANT WEATHER AND/OR OBSTRUCTIONS TO VISIBILITY.

AZZ001>003-036-051400-
NORTHWEST ARIZONA

CITY           SKY/WX    TMP DP  RH WIND       PRES   REMARKS
KINGMAN        CLEAR     31  24  75 SE6       30.30R WCI  25
$$

AZZ004>008-015-016-018-051400-
NORTH CENTRAL ARIZONA

CITY           SKY/WX    TMP DP  RH WIND       PRES   REMARKS
GRAND CANYON   PTCLDY     5   1  83 NE7       30.32R WCI  -7
PRESCOTT       CLEAR     26  15  63 SW3       30.30R
FLAGSTAFF      NOT AVBL
PAYSON         CLEAR     34   9  35 NE8       30.29R WCI  27
PAGE           CLEAR     32  21  64 SE6       30.36R WCI  26
$$

AZZ009>014-017-051400-
NORTHEAST ARIZONA

CITY           SKY/WX    TMP DP  RH WIND       PRES   REMARKS
WINSLOW        NOT AVBL
SAINT JOHNS    CLEAR     19  14  81 CALM      30.33R
WINDOW ROCK    CLEAR     18  12  77 CALM      30.33R
$$

AZZ023-051400-
GREATER PHOENIX AREA

CITY           SKY/WX    TMP DP  RH WIND       PRES   REMARKS
PHOENIX        PTCLDY    48  33  56 CALM      30.21R
GLENDALE       CLEAR     46  32  57 MISG      30.23
DEER VALLEY    CLEAR     48  22  35 E7        30.22R
SCOTTSDALE     CLEAR     52  21  29 N3        30.23R
MESA-FALCON    CLEAR     50  21  32 N14       30.20
MESA-GATEWAY   CLEAR     43  34  70 CALM      30.23R
CHANDLER       CLEAR     45  28  53 N9        30.22
$$

AZZ027-028-051400-
SOUTHWEST MARICOPA COUNTY AND PINAL COUNTY

CITY           SKY/WX    TMP DP  RH WIND       PRES   REMARKS
CASA GRANDE    CLEAR     52  19  28 N7        30.21R
GILA BEND      FAIR      43  39  86 S2        30.21R
$$

AZZ503-504-507>509-051400-
SOUTHEAST ARIZONA

CITY           SKY/WX    TMP DP  RH WIND       PRES   REMARKS
TUCSON         CLEAR     42  35  76 CALM      30.22R
RYAN FIELD       N/A     39  36  87 CALM      30.22
NOGALES        CLEAR     33  28  81 CALM      30.19R
SIERRA VISTA   CLEAR     36  30  80 CALM      30.22R
SAFFORD        CLEAR     34  22  61 SE6       30.25R WCI  29
$$

AZZ020-021-025-026-031-051400-
SOUTHWEST ARIZONA

CITY           SKY/WX    TMP DP  RH WIND       PRES   REMARKS
YUMA           CLEAR     52  31  44 NE3       30.20R
$$

CAZ031-033-041-043-047-048-061-051400-
SOUTHERN CALIFORNIA

CITY           SKY/WX    TMP DP  RH WIND       PRES   REMARKS
DOWNTOWN L.A.  CLEAR     52  30  43 CALM      30.19R
L.A. AIRPORT   PTCLDY    50  32  50 NE5       30.20R
SAN DIEGO      PTCLDY    51  39  63 CALM      30.19R
BURBANK        CLEAR     45  30  55 CALM      30.19R
ONTARIO        PTCLDY    46  34  62 N5        30.20R
RIVERSIDE      CLEAR     45  27  49 NE8       30.21R
PALM SPRINGS   CLEAR     56  22  26 W7        30.25R
EL CENTRO NAS  CLEAR     43  34  70 W7        30.21R
IMPERIAL       CLEAR     42  36  79 W7        30.21R
BLYTHE         CLEAR     47  34  60 CALM      30.24R
$$

NVZ020-UTZ003-051400-
SOUTHERN NEVADA-UTAH

CITY           SKY/WX    TMP DP  RH WIND       PRES   REMARKS
LAS VEGAS      NOT AVBL
SALT LAKE CITY PTCLDY    29  21  72 S9        30.38R WCI  20
$$

NMZ009-TXZ055-051400-
NEW MEXICO-WEST TEXAS

CITY           SKY/WX    TMP DP  RH WIND       PRES   REMARKS
ALBUQUERQUE    CLEAR     23  17  78 N6        30.36R WCI  16
EL PASO        PTCLDY    30  20  66 E7        30.36R WCI  23
$$


........................KEY........................
SKY/WX - SKY CONDITION/WEATHER
TMP    - TEMPERATURE IN FAHRENHEIT
DP     - DEW POINT IN FAHRENHEIT
RH     - RELATIVE HUMIDITY IN PERCENT
WIND   - DIRECTION AND SPEED IN MILES PER HOUR (MPH)
VRB    - VARIABLE WIND DIRECTION
PRES   - MEAN SEA LEVEL PRESSURE IN INCHES OF MERCURY
         F - FALLING PRESSURE   R - RISING PRESSURE
         S - STEADY PRESSURE
VSB    - VISIBILITY IN MILES
HX     - HEAT INDEX IN FAHRENHEIT
WCI    - WIND CHILL INDEX IN FAHRENHEIT
TC     - TEMPERATURE IN CELSIUS WHICH IS ALSO KNOWN AS
         TEMPERATURE IN CENTIGRADE
AFB    - AIR FORCE BASE
         LUKE AFB IS LUKE AIR FORCE BASE
         DAVIS-MONTHAN IS DAVIS-MONTHAN AIR FORCE BASE
NAS    - NAVAL AIR STATION
         EL CENTRO NAS IS EL CENTRO NAVAL AIR STATION
N/A    - NOT AVAILABLE



USA.gov is the U.S. government's official web portal to all federal, state and local government web resources and services.